Location: Newark
(48.1333°N, 17.1000°E)
Time: 23:52:33
(UTC+00:00)

N. Korean satellite - Pass Details

Date: 28 January 2020
Orbit: 456 x 505 km, 97.2° (Epoch: 19 February)

Event Time Altitude Azimuth Distance (km) Brightness Sun altitude
Rises 16:37:28 0° 200° (SSW) 2,458 10.7 -9.1°
Reaches altitude 10° 16:39:53 10° 218° (SW) 1,592 10.1 -9.5°
Maximum altitude 16:42:27 20° 267° (W) 1,132 9.6 -9.9°
Drops below altitude 10° 16:45:02 10° 316° (NW) 1,612 9.6 -10.3°
Sets 16:47:31 0° 334° (NNW) 2,499 10.3 -10.7°
